Погода в Пщине

Польша     49°58′33″N   18°56′58″E
темп.,
°C
ветер,
м/с
пор.,
м/с
влажн.,
%
обл.,
%
осадки,
мм/ч
давл.,
гПа
погр.,
м
28 февраля, вс
вс2801:00+3зсз3788100 0.2 1037316
04:00+2зсз269382 0.1 1036254
07:00+1з249675 0.1 1035147
10:00+2зсз348697 0.0 1035535
13:00+4з357599 0.0 1034655
16:00+6зюз366333 0.0 1032725
19:00+3зюз367816 0.0 1032128
22:00+3зюз368730 0.0 1033156
1 марта, пн
пн101:00+3сз249164 0.0 1034179
04:00+3с2288100 0.0 1033138
07:00+2ссз2388100 0.0 1035162
10:00+4ссз2281100 0.0 1035383
13:00+6с227192 0.0 1036629
16:00+6всв016745 0.0 1034682
19:00+4ююв018228 0.0 103622
22:00+2ююз11860 0.0 103622
2 марта, вт
вт201:00+2юз12870 0.0 103622
04:00+1зюз22830 0.0 103525
07:00+1зюз22770 0.0 103541
10:00+7зюз36600 0.0 1034373
13:00+10зюз46550 0.0 1033520
16:00+10зюз35590 0.0 1032380
19:00+6зюз33720 0.0 103346
22:00+5зюз22770 0.0 103322
3 марта, ср
ср301:00+3зюз11810 0.0 103322
04:00+3зюз12820 0.0 103222
07:00+2юз12810 0.0 103222
10:00+8зюз01600 0.0 1031240
13:00+11юз11478 0.0 1028476
16:00+11зюз12480 0.0 1026406
19:00+7зюз34680 0.0 102691
22:00+5юз35750 0.0 1025140
4 марта, чт
чт401:00+4юз34770 0.0 1023106
04:00+3юз258242 0.0 1021105
07:00+3юз378449 0.0 1020175
10:00+9зюз48634 0.0 1018505
13:00+11зюз575535 0.0 1016729
16:00+11зюз585866 0.0 1013689
19:00+8зюз387081 0.0 1013266
22:00+7юз41075100 0.0 1012333